Retour au catalogue

FENGYUN 1C DEB

LostPO
NORAD 31858·DEBRIS·🇨🇳 China

Lancé May 10, 1999 depuis Taiyuan Satellite Launch Center

Loading…

Prochains Passages (prochaines 24 heures)

TLE

PériméSource: Space-Track

Époque: Aug 18, 2017, 22:01 UTC

1 31858U 99025CJY 17230.91756475  .00000093  00000-0  11308-3 0  9995
2 31858  97.6319 119.2854 0366565 251.2096 104.8956 13.57280047505154

Suivez FENGYUN 1C DEB en temps réel avec AllMySat

Download on the App Store